Purchase, NY

3:58 PM EST on February 13, 2016 (GMT -0500)
Westchester County

Weather History for KHPN - May, 2012

Change the Weather History Date:

Saturday, May 19, 2012

  Actual Average Record
Temperature  
Mean Temperature 62 °F -  
Max Temperature 75 °F 65 °F 86 °F (1998)
Min Temperature 48 °F 47 °F 37 °F (2002)
Degree Days  
Heating Degree Days 4    
Growing Degree Days 12 (Base 50)    
Moisture  
Dew Point 46 °F    
Average Humidity 56    
Maximum Humidity 81    
Minimum Humidity 33    
Precipitation  
Precipitation 0.00 in - - ()
Sea Level Pressure  
Sea Level Pressure 30.14 in    
Wind  
Wind Speed 5 mph (NW)    
Max Wind Speed 13 mph    
Max Gust Speed -    
Visibility 10 miles    
Events      
Averages and records for this station are not official NWS values.
T = Trace of Precipitation, MM = Missing Value Source: NWS Daily Summary

Daily Weather History Graph

Daily Weather History Graph

Search for Another Location

Airport or City:

Trip Planner

Search our weather history database for the weather conditions in past years. The results will help you decide how hot, cold, wet, or windy it might be!

Date:

Astronomy

May. 19, 2012 Rise Set
Actual Time 5:32 AM EDT 8:10 PM EDT
Civil Twilight 5:01 AM EDT 8:42 PM EDT
Nautical Twilight 4:21 AM EDT 9:22 PM EDT
Astronomical Twilight 3:36 AM EDT 10:07 PM EDT
Moon 4:34 AM EDT (5/19) 7:12 PM EDT (5/19)
Length of Visible Light 15h 41m
Length of Day
14h 37m
Waning Crescent, 2% of the Moon is Illuminated
May 19
Waning Crescent
May 20
New
May 28
First Quarter
Jun 4
Full
Jun 11
Last Quarter

Hourly Weather History & Observations

Time (EDT) Temp. Dew Point Humidity Pressure Visibility Wind Dir Wind Speed Gust Speed Precip Events Conditions
12:56 AM 50.0 °F 43.0 °F 77% 30.18 in 10.0 mi WNW 4.6 mph - N/A   Clear
1:56 AM 50.0 °F 43.0 °F 77% 30.17 in 10.0 mi WNW 4.6 mph - N/A   Clear
2:56 AM 48.9 °F 42.1 °F 77% 30.15 in 10.0 mi WNW 5.8 mph - N/A   Clear
3:56 AM 48.0 °F 39.0 °F 71% 30.14 in 10.0 mi NW 5.8 mph - N/A   Clear
4:56 AM 48.0 °F 39.9 °F 74% 30.15 in 10.0 mi WNW 4.6 mph - N/A   Clear
5:56 AM 50.0 °F 42.1 °F 74% 30.15 in 10.0 mi WNW 5.8 mph - N/A   Clear
6:56 AM 54.0 °F 43.0 °F 66% 30.16 in 10.0 mi Calm Calm - N/A   Clear
7:56 AM 59.0 °F 44.1 °F 58% 30.16 in 10.0 mi NW 5.8 mph - N/A   Clear
8:56 AM 66.0 °F 45.0 °F 47% 30.16 in 10.0 mi NNW 5.8 mph - N/A   Clear
9:56 AM 69.1 °F 46.0 °F 44% 30.16 in 10.0 mi NNE 5.8 mph - N/A   Clear
10:56 AM 73.0 °F 48.0 °F 41% 30.14 in 10.0 mi Variable 5.8 mph - N/A   Clear
11:56 AM 73.9 °F 50.0 °F 43% 30.13 in 10.0 mi SSE 5.8 mph - N/A   Clear
12:56 PM 75.0 °F 51.1 °F 43% 30.12 in 10.0 mi Variable 6.9 mph - N/A   Clear
1:56 PM 73.9 °F 46.9 °F 38% 30.13 in 10.0 mi SE 12.7 mph - N/A   Clear
2:56 PM 75.0 °F 46.0 °F 36% 30.12 in 10.0 mi SE 10.4 mph - N/A   Clear
3:56 PM 75.0 °F 46.0 °F 36% 30.12 in 10.0 mi SE 6.9 mph - N/A   Clear
4:56 PM 75.9 °F 45.0 °F 33% 30.11 in 10.0 mi SSE 3.5 mph - N/A   Clear
5:56 PM 75.2 °F 46.4 °F 36% 30.11 in 10.0 mi SE 5.8 mph - N/A   Clear
6:56 PM 73.9 °F 45.0 °F 35% 30.11 in 10.0 mi ESE 4.6 mph - N/A   Clear
7:56 PM 66.0 °F 46.0 °F 48% 30.12 in 10.0 mi ESE 6.9 mph - N/A   Clear
8:56 PM 62.1 °F 48.0 °F 60% 30.14 in 10.0 mi Calm Calm - N/A   Clear
9:56 PM 59.0 °F 48.9 °F 69% 30.16 in 10.0 mi Calm Calm - N/A   Clear
10:56 PM 57.9 °F 50.0 °F 75% 30.17 in 10.0 mi Calm Calm - N/A   Clear
11:56 PM 57.0 °F 51.1 °F 81% 30.17 in 10.0 mi Calm Calm - N/A   Clear